| time (UTC) | temp F | wind direction | speed MPH | gust MPH | rain 1hr in | rain 24hr in | rain mn in | humidity % | barometer mb |
| 20260508081518 | 58 | 109 | 2.0 | 7.0 | 0.00 | 0.00 | 0.00 | 41 | 1010.3 |
| 20260508080027 | 58 | 80 | 2.0 | 8.0 | 0.00 | 0.00 | 0.00 | 41 | 1010.3 |
| 20260508074526 | 59 | 115 | 2.0 | 4.0 | 0.00 | 0.00 | 0.00 | 40 | 1010.4 |
| 20260508073016 | 59 | 67 | 3.0 | 9.0 | 0.00 | 0.00 | 0.00 | 40 | 1010.3 |
| 20260508071523 | 59 | 87 | 7.0 | 10.0 | 0.00 | 0.00 | 0.00 | 41 | 1010.3 |
| 20260508070013 | 58 | 86 | 6.0 | 9.0 | 0.00 | 0.00 | 0.00 | 42 | 1010.3 |
| 20260508064515 | 57 | 63 | 1.0 | 8.0 | 0.00 | 0.00 | 0.00 | 43 | 1010.5 |
| 20260508063010 | 57 | 82 | 4.0 | 9.0 | 0.00 | 0.00 | 0.00 | 44 | 1010.5 |
| 20260508061510 | 57 | 101 | 5.0 | 8.0 | 0.00 | 0.00 | 0.00 | 44 | 1010.4 |
| 20260508060008 | 57 | 94 | 4.0 | 7.0 | 0.00 | 0.00 | 0.00 | 44 | 1010.3 |
| 20260508054509 | 58 | 95 | 4.0 | 7.0 | 0.00 | 0.00 | 0.00 | 43 | 1010.1 |
| 20260508053006 | 58 | 101 | 3.0 | 6.0 | 0.00 | 0.00 | 0.00 | 43 | 1010.1 |
| 20260508051505 | 59 | 163 | 2.0 | 3.0 | 0.00 | 0.00 | 0.00 | 42 | 1010.2 |
| 20260508050005 | 59 | 86 | 6.0 | 9.0 | 0.00 | 0.00 | 0.00 | 41 | 1010.1 |
| 20260508044504 | 59 | 92 | 3.0 | 8.0 | 0.00 | 0.00 | 0.00 | 41 | 1010.3 |
| 20260508043004 | 59 | 124 | 1.0 | 4.0 | 0.00 | 0.00 | 0.00 | 40 | 1010.4 |
| 20260508041502 | 60 | 114 | 1.0 | 3.0 | 0.00 | 0.00 | 0.00 | 40 | 1010.3 |
| 20260508040006 | 61 | 69 | 6.0 | 12.0 | 0.00 | 0.00 | 0.00 | 39 | 1010.1 |
| 20260508034502 | 60 | 91 | 6.0 | 10.0 | 0.00 | 0.00 | 0.00 | 40 | 1010.0 |
| 20260508033001 | 60 | 139 | 4.0 | 9.0 | 0.00 | 0.00 | 0.00 | 41 | 1010.0 |
| 20260508031503 | 59 | 105 | 3.0 | 6.0 | 0.00 | 0.00 | 0.00 | 42 | 1010.0 |
| 20260508030001 | 61 | 76 | 4.0 | 9.0 | 0.00 | 0.00 | 0.00 | 39 | 1009.9 |
| 20260508024601 | 62 | 92 | 6.0 | 8.0 | 0.00 | 0.00 | 0.00 | 39 | 1009.9 |
| 20260508023101 | 63 | 106 | 5.0 | 7.0 | 0.00 | 0.00 | 0.00 | 37 | 1009.8 |
| 20260508021524 | 68 | 84 | 2.0 | 4.0 | 0.00 | 0.00 | 0.00 | 33 | 1009.8 |
| 20260508020017 | 69 | 294 | 1.0 | 3.0 | 0.00 | 0.00 | 0.00 | 29 | 1009.8 |
| 20260508014516 | 69 | 311 | 2.0 | 5.0 | 0.00 | 0.00 | 0.00 | 29 | 1009.8 |
| 20260508013027 | 70 | 318 | 3.0 | 6.0 | 0.00 | 0.00 | 0.00 | 28 | 1009.9 |
| 20260508011559 | 72 | 111 | 3.0 | 7.0 | 0.00 | 0.00 | 0.00 | 27 | 1009.9 |
| 20260508010056 | 72 | 206 | 3.0 | 7.0 | 0.00 | 0.00 | 0.00 | 27 | 1010.1 |
| 20260508004609 | 69 | 125 | 0.0 | 7.0 | 0.00 | 0.00 | 0.00 | 29 | 1010.2 |
| 20260508003053 | 68 | 124 | 2.0 | 5.0 | 0.00 | 0.00 | 0.00 | 30 | 1010.3 |
| 20260508001552 | 68 | 334 | 0.0 | 5.0 | 0.00 | 0.00 | 0.00 | 30 | 1010.6 |
| 20260508000050 | 69 | 24 | 0.0 | 5.0 | 0.00 | 0.00 | 0.00 | 30 | 1010.8 |
| 20260507234550 | 69 | 37 | 1.0 | 6.0 | 0.00 | 0.00 | 0.00 | 30 | 1011.0 |
| 20260507233048 | 70 | 9 | 3.0 | 8.0 | 0.00 | 0.00 | 0.00 | 31 | 1011.2 |
| 20260507231552 | 69 | 308 | 4.0 | 11.0 | 0.00 | 0.00 | 0.00 | 30 | 1011.5 |
| 20260507230048 | 69 | 119 | 1.0 | 9.0 | 0.00 | 0.00 | 0.00 | 30 | 1011.6 |
| 20260507224543 | 71 | 348 | 5.0 | 11.0 | 0.00 | 0.00 | 0.00 | 29 | 1011.9 |
| 20260507223041 | 70 | 286 | 4.0 | 7.0 | 0.00 | 0.00 | 0.00 | 30 | 1012.1 |
| 20260507221542 | 70 | 16 | 4.0 | 9.0 | 0.00 | 0.00 | 0.00 | 30 | 1012.3 |
| 20260507220039 | 69 | 316 | 3.0 | 9.0 | 0.00 | 0.00 | 0.00 | 30 | 1012.6 |
| 20260507214557 | 69 | 19 | 3.0 | 9.0 | 0.00 | 0.00 | 0.00 | 31 | 1012.7 |
| 20260507213036 | 67 | 332 | 0.0 | 13.0 | 0.00 | 0.00 | 0.00 | 30 | 1013.2 |
| 20260507211534 | 69 | 264 | 5.0 | 10.0 | 0.00 | 0.00 | 0.00 | 29 | 1013.4 |
| 20260507210048 | 69 | 10 | 6.0 | 10.0 | 0.00 | 0.00 | 0.00 | 30 | 1013.7 |
| 20260507204531 | 68 | 198 | 3.0 | 7.0 | 0.00 | 0.00 | 0.00 | 29 | 1013.7 |
| 20260507203030 | 67 | 322 | 4.0 | 8.0 | 0.00 | 0.00 | 0.00 | 30 | 1014.0 |
| 20260507201527 | 67 | 316 | 3.0 | 7.0 | 0.00 | 0.00 | 0.00 | 30 | 1014.1 |
| 20260507200027 | 67 | 274 | 5.0 | 8.0 | 0.00 | 0.00 | 0.00 | 29 | 1014.3 |
| 20260507194535 | 71 | 232 | 3.0 | 7.0 | 0.00 | 0.00 | 0.00 | 27 | 1014.4 |
| 20260507193025 | 70 | 213 | 1.0 | 6.0 | 0.00 | 0.00 | 0.00 | 32 | 1014.5 |
| 20260507191520 | 68 | 267 | 3.0 | 6.0 | 0.00 | 0.00 | 0.00 | 30 | 1014.7 |
| 20260507190016 | 66 | 229 | 2.0 | 5.0 | 0.00 | 0.00 | 0.00 | 33 | 1015.0 |
| 20260507184517 | 64 | 355 | 1.0 | 6.0 | 0.00 | 0.00 | 0.00 | 33 | 1015.2 |
| 20260507183010 | 64 | 260 | 0.0 | 1.0 | 0.00 | 0.00 | 0.00 | 35 | 1015.3 |
| 20260507181506 | 63 | 260 | 0.0 | 3.0 | 0.00 | 0.00 | 0.00 | 35 | 1015.3 |
| 20260507180005 | 62 | 267 | 1.0 | 4.0 | 0.00 | 0.00 | 0.00 | 37 | 1015.4 |
| 20260507174600 | 60 | 297 | 0.0 | 4.0 | 0.00 | 0.00 | 0.00 | 41 | 1015.5 |
| 20260507173056 | 59 | 294 | 0.0 | 4.0 | 0.00 | 0.00 | 0.00 | 42 | 1015.7 |
| 20260507171603 | 58 | 302 | 2.0 | 5.0 | 0.00 | 0.00 | 0.00 | 43 | 1015.8 |
| 20260507170056 | 58 | 332 | 1.0 | 7.0 | 0.00 | 0.00 | 0.00 | 44 | 1015.9 |
| 20260507164600 | 58 | 288 | 2.0 | 5.0 | 0.00 | 0.00 | 0.00 | 46 | 1016.0 |
| 20260507163053 | 57 | 272 | 3.0 | 5.0 | 0.00 | 0.00 | 0.00 | 46 | 1016.1 |
| 20260507161550 | 57 | 285 | 0.0 | 3.0 | 0.00 | 0.00 | 0.00 | 46 | 1016.0 |
| 20260507160051 | 57 | 285 | 2.0 | 4.0 | 0.00 | 0.00 | 0.00 | 46 | 1015.9 |
| 20260507154548 | 56 | 310 | 0.0 | 3.0 | 0.00 | 0.00 | 0.00 | 49 | 1016.1 |
| 20260507153046 | 56 | 299 | 4.0 | 9.0 | 0.00 | 0.00 | 0.00 | 52 | 1016.1 |
| 20260507151544 | 55 | 290 | 0.0 | 2.0 | 0.00 | 0.00 | 0.00 | 54 | 1016.2 |
| 20260507150040 | 53 | 290 | 0.0 | 4.0 | 0.00 | 0.00 | 0.00 | 53 | 1016.2 |
| 20260507144539 | 53 | 158 | 1.0 | 5.0 | 0.00 | 0.00 | 0.00 | 55 | 1016.2 |
| 20260507143037 | 52 | 242 | 0.0 | 2.0 | 0.00 | 0.00 | 0.00 | 55 | 1016.4 |
| 20260507141534 | 51 | 242 | 0.0 | 3.0 | 0.00 | 0.00 | 0.00 | 61 | 1016.2 |
| 20260507140032 | 50 | 242 | 0.0 | 3.0 | 0.00 | 0.00 | 0.00 | 58 | 1016.3 |
| 20260507134531 | 50 | 117 | 0.0 | 5.0 | 0.00 | 0.00 | 0.00 | 57 | 1016.3 |
| 20260507133033 | 49 | 148 | 1.0 | 3.0 | 0.00 | 0.00 | 0.00 | 53 | 1016.4 |
| 20260507131528 | 49 | 148 | 2.0 | 4.0 | 0.00 | 0.00 | 0.00 | 54 | 1016.4 |
| 20260507130037 | 49 | 78 | 1.0 | 3.0 | 0.00 | 0.00 | 0.00 | 54 | 1016.6 |
| 20260507124529 | 48 | 78 | 1.0 | 5.0 | 0.00 | 0.00 | 0.00 | 52 | 1016.7 |
| 20260507123026 | 48 | 72 | 2.0 | 5.0 | 0.00 | 0.00 | 0.00 | 54 | 1016.5 |
| 20260507121525 | 48 | 117 | 3.0 | 7.0 | 0.00 | 0.00 | 0.00 | 53 | 1016.3 |
| 20260507120024 | 48 | 119 | 4.0 | 8.0 | 0.00 | 0.00 | 0.00 | 53 | 1016.6 |
| 20260507114523 | 48 | 103 | 3.0 | 6.0 | 0.00 | 0.00 | 0.00 | 54 | 1016.9 |
| 20260507113023 | 48 | 94 | 0.0 | 5.0 | 0.00 | 0.00 | 0.00 | 53 | 1017.1 |
| 20260507111527 | 49 | 91 | 4.0 | 8.0 | 0.00 | 0.00 | 0.00 | 51 | 1016.7 |
| 20260507110024 | 50 | 109 | 4.0 | 5.0 | 0.00 | 0.00 | 0.00 | 50 | 1016.7 |
| 20260507104522 | 49 | 98 | 4.0 | 7.0 | 0.00 | 0.00 | 0.00 | 51 | 1016.9 |
| 20260507103028 | 49 | 68 | 4.0 | 7.0 | 0.00 | 0.00 | 0.00 | 51 | 1017.1 |
| 20260507101517 | 49 | 84 | 4.0 | 6.0 | 0.00 | 0.00 | 0.00 | 50 | 1017.2 |
| 20260507100019 | 49 | 94 | 6.0 | 8.0 | 0.00 | 0.00 | 0.00 | 49 | 1017.6 |
| 20260507094514 | 49 | 128 | 3.0 | 7.0 | 0.00 | 0.03 | 0.00 | 48 | 1017.8 |
| 20260507093012 | 49 | 110 | 5.0 | 9.0 | 0.00 | 0.03 | 0.00 | 48 | 1017.8 |
| 20260507091510 | 48 | 102 | 4.0 | 8.0 | 0.00 | 0.03 | 0.00 | 49 | 1018.0 |
| 20260507090009 | 48 | 65 | 4.0 | 7.0 | 0.00 | 0.03 | 0.00 | 50 | 1018.1 |
| 20260507084507 | 48 | 84 | 3.0 | 8.0 | 0.00 | 0.08 | 0.00 | 48 | 1018.2 |
| 20260507083007 | 48 | 87 | 4.0 | 7.0 | 0.00 | 0.08 | 0.00 | 49 | 1018.4 |